Change the Weather History Date:

Thursday, March 28, 2013

  Actual Average Record
Temperature  
Mean Temperature 60 °F -  
Max Temperature 64 °F 67 °F 68 °F (1997)
Min Temperature 57 °F 51 °F 48 °F (2001)
Degree Days  
Heating Degree Days 4    
Growing Degree Days 10 (Base 50)    
Moisture  
Dew Point 56 °F    
Average Humidity 83    
Maximum Humidity 94    
Minimum Humidity 67    
Precipitation  
Precipitation 0.01 in 0.08 in - ()
Sea Level Pressure  
Sea Level Pressure 29.98 in    
Wind  
Wind Speed 10 mph ()    
Max Wind Speed 20 mph    
Max Gust Speed -    
Visibility 5.6 miles    
Events Rain    
Averages and records for this station are not official NWS values.
T = Trace of Precipitation, MM = Missing Value Source: Averaged Metar Reports

Daily Weather History Graph

Daily Weather History Graph

Search for Another Location

Airport or City:

Trip Planner

Search our weather history database for the weather conditions in past years. The results will help you decide how hot, cold, wet, or windy it might be!

Date:

Astronomy

Mar. 28, 2013 Rise Set
Actual Time 6:15 AM WET 6:42 PM WET
Civil Twilight 5:50 AM WET 7:07 PM WET
Nautical Twilight 5:20 AM WET 7:37 PM WET
Astronomical Twilight 4:49 AM WET 8:08 PM WET
Moon 8:13 PM WET (3/28) 6:38 AM WET (3/28)
Length of Visible Light 13h 17m
Length of Day
12h 26m
Full, 98% of the Moon is Illuminated
Mar 28
Full
Apr 3
Last Quarter
Apr 10
New
Apr 18
First Quarter
Apr 25
Full

Hourly Weather History & Observations

Time (WET) Temp. Dew Point Humidity Pressure Visibility Wind Dir Wind Speed Gust Speed Precip Events Conditions
12:00 AM 60 °F 56 °F 83% 29.78 in 4 mi South 10.4 mph - - Rain Light Rain
12:00 AM 59.0 °F 55.4 °F 88% 29.77 in 3.7 mi South 10.4 mph - N/A Rain Rain
3:00 AM 58 °F 56 °F 92% 29.73 in - South 9.2 mph - -  
4:30 AM 59.0 °F 57.2 °F 94% 29.74 in 6.2 mi South 9.2 mph - N/A   Mostly Cloudy
5:00 AM 59.0 °F 57.2 °F 94% 29.74 in 3.7 mi South 6.9 mph - N/A   Mostly Cloudy
5:30 AM 59.0 °F 57.2 °F 94% 29.77 in 3.7 mi South 4.6 mph - N/A   Mostly Cloudy
6:00 AM 59 °F 56 °F 88% 29.79 in 4 mi SW 3.5 mph - -   Partly Cloudy
6:30 AM 59.0 °F 57.2 °F 94% 29.80 in 3.7 mi SW 5.8 mph - N/A   Mostly Cloudy
7:00 AM 59.0 °F 57.2 °F 94% 29.80 in 3.7 mi SSW 5.8 mph - N/A   Mostly Cloudy
7:30 AM 59.0 °F 57.2 °F 94% 29.83 in 3.7 mi SW 5.8 mph - N/A   Mostly Cloudy
8:00 AM 60.8 °F 59.0 °F 94% 29.86 in 3.7 mi West 10.4 mph - N/A Rain Light Rain
8:30 AM 60.8 °F 59.0 °F 94% 29.89 in 6.2 mi NW 15.0 mph - N/A   Mostly Cloudy
9:00 AM 62 °F 58 °F 84% 29.93 in 6 mi WNW 12.7 mph - - Rain Rain
9:00 AM 62.6 °F 59.0 °F 88% 29.92 in 6.2 mi WNW 12.7 mph - N/A   Mostly Cloudy
9:30 AM 62.6 °F 59.0 °F 88% 29.92 in 6.2 mi WNW 10.4 mph - N/A   Mostly Cloudy
10:00 AM 62.6 °F 59.0 °F 88% 29.95 in 6.2 mi WNW 13.8 mph - N/A   Unknown
10:30 AM 60.8 °F 57.2 °F 88% 29.98 in 6.2 mi WNW 17.3 mph - N/A   Unknown
11:00 AM 62.6 °F 57.2 °F 82% 30.01 in 6.2 mi WNW 17.3 mph - N/A   Unknown
11:30 AM 62.6 °F 57.2 °F 82% 30.04 in 6.2 mi WNW 17.3 mph - N/A   Unknown
12:00 PM 63 °F 56 °F 70% 30.05 in 6 mi WNW 16.1 mph - -  
12:00 PM 62.6 °F 55.4 °F 77% 30.04 in 6.2 mi WNW 16.1 mph - N/A   Mostly Cloudy
12:30 PM 64.4 °F 55.4 °F 73% 30.04 in 6.2 mi West 17.3 mph - N/A   Mostly Cloudy
1:00 PM 64.4 °F 57.2 °F 77% 30.01 in 6.2 mi West 13.8 mph - N/A   Unknown
1:30 PM 64.4 °F 57.2 °F 77% 30.01 in 6.2 mi WSW 15.0 mph - N/A   Unknown
2:00 PM 62.6 °F 57.2 °F 82% 30.04 in 6.2 mi West 16.1 mph - N/A   Unknown
2:30 PM 62.6 °F 57.2 °F 82% 30.04 in 6.2 mi West 16.1 mph - N/A   Unknown
3:00 PM 63 °F 56 °F 70% 30.06 in 6 mi West 18.4 mph - -  
3:00 PM 62.6 °F 55.4 °F 77% 30.04 in 6.2 mi West 19.6 mph - N/A   Unknown
3:30 PM 62.6 °F 57.2 °F 82% 30.04 in 6.2 mi West 16.1 mph - N/A   Unknown
4:00 PM 64.4 °F 55.4 °F 73% 30.04 in 6.2 mi West 16.1 mph - N/A   Unknown
4:30 PM 62.6 °F 53.6 °F 72% 30.04 in - West 17.3 mph - N/A   Clear
5:00 PM 62.6 °F 53.6 °F 72% 30.06 in - West 15.0 mph - N/A   Clear
5:30 PM 60.8 °F 53.6 °F 77% 30.06 in - West 13.8 mph - N/A   Clear
6:00 PM 61 °F 53 °F 67% 30.09 in 6 mi West 13.8 mph - -  
6:00 PM 60.8 °F 53.6 °F 77% 30.06 in 6.2 mi West 13.8 mph - N/A   Unknown
6:30 PM 60.8 °F 51.8 °F 72% 30.09 in 6.2 mi West 15.0 mph - N/A   Unknown
7:00 PM 60.8 °F 53.6 °F 77% 30.09 in 6.2 mi West 12.7 mph - N/A   Unknown
7:30 PM 59.0 °F 53.6 °F 82% 30.09 in 6.2 mi West 11.5 mph - N/A   Unknown
8:00 PM 60.8 °F 53.6 °F 77% 30.12 in 6.2 mi West 12.7 mph - N/A   Unknown
8:30 PM 59.0 °F 53.6 °F 82% 30.12 in - West 11.5 mph - N/A   Unknown
9:00 PM 59.0 °F 53.6 °F 82% 30.12 in - West 9.2 mph - N/A   Unknown
9:30 PM 57.2 °F 53.6 °F 88% 30.12 in - WSW 5.8 mph - N/A   Unknown
10:00 PM 57.2 °F 51.8 °F 82% 30.12 in - SW 4.6 mph - N/A   Unknown
10:30 PM 57.2 °F 53.6 °F 88% 30.12 in - WSW 8.1 mph - N/A   Unknown
11:00 PM 59.0 °F 53.6 °F 82% 30.12 in - SW 9.2 mph - N/A   Unknown
11:30 PM 57.2 °F 53.6 °F 88% 30.15 in - SW 8.1 mph - N/A   Unknown